Weather History for KYNG - October, 2013

Change the Weather History Date:

Friday, October 4, 2013

  Actual Average Record
Temperature  
Mean Temperature 72 °F 55 °F  
Max Temperature 81 °F 65 °F 86 °F (1898)
Min Temperature 63 °F 45 °F 30 °F (1974)
Degree Days  
Heating Degree Days 0 11  
Month to date heating degree days 0 41  
Since 1 July heating degree days 189 224  
Cooling Degree Days 7 0  
Month to date cooling degree days 12 3  
Year to date cooling degree days 621 541  
Growing Degree Days 22 (Base 50)    
Moisture  
Dew Point 64 °F    
Average Humidity 77    
Maximum Humidity 100    
Minimum Humidity 54    
Precipitation  
Precipitation T in 0.09 in 1.62 in (1954)
Month to date precipitation 0.13 0.39  
Year to date precipitation 29.56 30.36  
Snow  
Snow 0.00 in 0.00 in - ()
Month to date snowfall 0.0 0.0  
Since 1 July snowfall 0.0 0.0  
Since 1 September snowfall 0.0 0.0  
Snow Depth 0.00 in    
Sea Level Pressure  
Sea Level Pressure 30.05 in    
Wind  
Wind Speed 6 mph (SW)    
Max Wind Speed 16 mph    
Max Gust Speed 20 mph    
Visibility 8 miles    
Events Fog , Rain    
T = Trace of Precipitation, MM = Missing Value Source: NWS Daily Summary

Daily Weather History Graph

Daily Weather History Graph

Search for Another Location

Airport or City:

Trip Planner

Search our weather history database for the weather conditions in past years. The results will help you decide how hot, cold, wet, or windy it might be!

Date:

Astronomy

Oct. 04, 2013 Rise Set
Actual Time 7:22 AM EDT 6:59 PM EDT
Civil Twilight 6:55 AM EDT 7:26 PM EDT
Nautical Twilight 6:23 AM EDT 7:58 PM EDT
Astronomical Twilight 5:51 AM EDT 8:30 PM EDT
Moon 6:56 AM EDT (10/4) 6:40 PM EDT (10/4)
Length of Visible Light 12h 31m
Length of Day
11h 36m
Waning Crescent, 0% of the Moon is Illuminated
Oct 4
Waning Crescent
Oct 4
New
Oct 11
First Quarter
Oct 18
Full
Oct 26
Last Quarter

Hourly Weather History & Observations

Time (EDT) Temp. Heat Index Dew Point Humidity Pressure Visibility Wind Dir Wind Speed Gust Speed Precip Events Conditions
12:51 AM 64.9 °F - 63.0 °F 93% 30.04 in 8.0 mi South 4.6 mph - N/A   Overcast
1:51 AM 64.9 °F - 63.0 °F 93% 30.03 in 8.0 mi South 4.6 mph - N/A   Overcast
2:51 AM 64.9 °F - 63.0 °F 93% 30.03 in 7.0 mi SSW 4.6 mph - N/A   Overcast
3:51 AM 64.9 °F - 63.0 °F 93% 30.03 in 6.0 mi South 4.6 mph - N/A   Mostly Cloudy
4:51 AM 66.0 °F - 64.0 °F 93% 30.04 in 6.0 mi SW 5.8 mph - N/A   Overcast
5:51 AM 64.9 °F - 63.0 °F 93% 30.04 in 6.0 mi SSW 4.6 mph - N/A   Mostly Cloudy
6:51 AM 66.0 °F - 64.0 °F 93% 30.06 in 7.0 mi SW 5.8 mph - N/A   Overcast
7:51 AM 66.0 °F - 63.0 °F 90% 30.07 in 6.0 mi SW 8.1 mph - N/A   Mostly Cloudy
8:51 AM 66.9 °F - 64.0 °F 90% 30.08 in 7.0 mi SW 8.1 mph - N/A   Scattered Clouds
9:51 AM 71.1 °F - 64.9 °F 81% 30.07 in 10.0 mi SW 9.2 mph - N/A   Scattered Clouds
10:51 AM 73.9 °F - 66.0 °F 76% 30.06 in 10.0 mi WSW 10.4 mph - N/A   Scattered Clouds
11:51 AM 78.1 °F - 66.0 °F 66% 30.05 in 10.0 mi SW 13.8 mph - N/A   Mostly Cloudy
12:13 PM 75.2 °F - 62.6 °F 65% 30.07 in 10.0 mi West 10.4 mph - N/A   Mostly Cloudy
12:34 PM 78.8 °F - 64.4 °F 61% 30.07 in 10.0 mi West 8.1 mph - N/A   Mostly Cloudy
12:51 PM 78.1 °F - 64.0 °F 62% 30.05 in 10.0 mi West 11.5 mph 17.3 mph N/A   Mostly Cloudy
1:51 PM 80.1 °F 81.5 °F 63.0 °F 56% 30.04 in 10.0 mi West 10.4 mph - N/A   Mostly Cloudy
2:51 PM 79.0 °F - 62.1 °F 56% 30.02 in 10.0 mi Variable 6.9 mph - N/A   Mostly Cloudy
3:51 PM 71.1 °F - 64.0 °F 78% 30.05 in 10.0 mi NNW 11.5 mph - 0.00 in Rain Light Rain
4:51 PM 69.1 °F - 66.0 °F 90% 30.05 in 10.0 mi NW 3.5 mph - 0.00 in Rain Light Rain
5:51 PM 69.1 °F - 66.0 °F 90% 30.06 in 10.0 mi South 3.5 mph - 0.00 in   Mostly Cloudy
6:51 PM 66.9 °F - 64.9 °F 93% 30.05 in 10.0 mi Calm Calm - N/A   Mostly Cloudy
7:51 PM 64.9 °F - 64.0 °F 97% 30.06 in 6.0 mi Calm Calm - N/A Fog Shallow Fog
8:51 PM 66.0 °F - 64.9 °F 96% 30.06 in 9.0 mi SSE 4.6 mph - N/A   Mostly Cloudy
9:51 PM 66.0 °F - 64.0 °F 93% 30.07 in 8.0 mi South 3.5 mph - N/A   Mostly Cloudy
10:51 PM 64.0 °F - 63.0 °F 96% 30.06 in 7.0 mi Calm Calm - N/A   Scattered Clouds
11:51 PM 64.9 °F - 63.0 °F 93% 30.07 in 6.0 mi Calm Calm - N/A   Mostly Cloudy